Regional Weather Roundup
Issued by NWS

Home | Current Version | Previous Version | Text Only | Print | Product List | Glossary On
Versions: 1 2 3 4 5 6 7 8 9 10 11 12 13 14 15 16 17 18 19 20 21 22 23 24 25 26 27 28 29 30 31 32 33 34 35 36 37 38 39 40 41 42 43 44 45 46 47 48 49 50
000
ASUS44 KEWX 310810
RWRTX
SOUTH TEXAS REGIONAL WEATHER ROUNDUP
NATIONAL WEATHER SERVICE AUSTIN/SAN ANTONIO TX
200 AM CST SAT JAN 31 2015

NOTE: "FAIR" INDICATED FEW OR NO CLOUDS BELOW 12,000 FEET WITH NO
SIGNIFICANT WEATHER AND/OR OBSTRUCTIONS TO VISIBILITY.

* - THESE STATIONS ARE NOT NWS OR FAA STATIONS...AND ARE NOT SUBJECT
    TO NWS AND FAA QUALITY CONTROL.

TXZ171-172-183>190-310900-
TEXAS HILL COUNTRY AND EDWARDS PLATEAU

CITY           SKY/WX    TMP DP  RH WIND       PRES   REMARKS
JUNCTION       CLOUDY    50  39  66 E7        30.17F WCI  47
*LLANO         CLOUDY    48  37  66 CALM      30.24F
BURNET         CLOUDY    47  35  63 E7        30.22F WCI  44
*HORSESHOE BAY CLOUDY    48  37  64 CALM      30.21F
*KERRVILLE     CLOUDY    49  40  71 SE6       30.20S WCI  46
*FREDERICKSBRG CLOUDY    48  38  70 CALM      30.19F
*ROCKSPRINGS   CLOUDY    48  43  81 SE10G18   30.16F WCI  44
*BOERNE STAGE  CLOUDY    50  37  62 SE5       30.21F WCI  48
*CASTROVILLE   CLOUDY    52  42  68 E10       30.21F
HONDO          CLOUDY    52  41  66 E14       30.22S
*UVALDE        CLOUDY    52  42  69 E13       30.18F
DEL RIO        CLOUDY    53  44  71 E12       30.15F
LAUGHLIN AFB   CLOUDY    52  45  76 SE15      30.14F
CARRIZO SPRGS  CLOUDY    54  46  76 E13       30.15F
$$

TXZ173-191>194-202-209-217>225-228-310900-
CENTRAL AND SOUTH CENTRAL TEXAS

CITY           SKY/WX    TMP DP  RH WIND       PRES   REMARKS
GEORGETOWN     CLOUDY    48  36  61 CALM      30.23F
AUSTIN/BERGSTM CLOUDY    49  40  71 E3        30.23F
AUSTIN/MABRY   CLOUDY    51  38  60 E6        30.24F
*AUSTIN/EXEC   CLOUDY    46  39  76 E6        30.24F WCI  43
*LAGO VISTA    MOCLDY    49  37  64 E8        30.22F WCI  46
SAN MARCOS     CLOUDY    52  39  62 SE6       30.23F
NEW BRAUNFELS  CLOUDY    52  42  69 SE6       30.21F
RANDOLPH AFB   CLOUDY    51  43  74 SE6       30.22F
PT SAN ANTONIO CLOUDY    52  44  72 SE12      30.20F
SAN ANTONIO    CLOUDY    52  43  71 SE12      30.22F
STINSON FIELD  CLOUDY    52  43  71 SE9       30.21S
*PLEASANTON    CLOUDY    52  44  74 E13       30.21F
*LA GRANGE     PTCLDY    44  41  90 CALM      30.22F
*GIDDINGS      PTCLDY    44  38  80 CALM      30.27F
*GONZALES      NOT AVBL
$$

TXZ163>164-176>182-195>201-210>213-226-227-235-310900-
SOUTHEAST TEXAS

CITY           SKY/WX    TMP DP  RH WIND       PRES   REMARKS
COLLEGE STN    PTCLDY    47  34  60 E6        30.25F WCI  44
*BRYAN         PTCLDY    44  35  70 E5        30.27S WCI  41
*CALDWELL      PTCLDY    45  36  70 E3        30.27F
*CROCKETT      PTCLDY    46  37  71 E3        30.30F
*BRENHAM       PTCLDY    46  37  72 E3        30.26F
HUNTSVILLE     PTCLDY    45  35  68 E5        30.26F WCI  43
CONROE         CLEAR     42  35  76 E5        30.26F WCI  39
HOUSTON BUSH   PTCLDY    43  37  79 E5        30.26F WCI  40
HOUSTON HOBBY  PTCLDY    51  39  63 E9        30.25F
*HOUSTON SW AP CLEAR     47  42  84 E5        30.25F WCI  44
PEARLAND       CLEAR     52  42  69 E12       30.26F
HOUSTON HOOKS  CLEAR     47  36  65 E7        30.25F WCI  44
ELLINGTON FLD  PTCLDY    52  43  71 E6        30.26F
SUGAR LAND     CLEAR     51  40  65 E7        30.24F
*HOUSTON EXEC  MOCLDY    45  37  76 E5        30.25F WCI  42
*CLEVELAND MUN CLEAR     43  37  81 E3        30.28F
*WHARTON       MOCLDY    46  43  92 CALM      30.24F
*COLUMBUS      FAIR      43  42  94 CALM      30.23F
$$

TXZ214>216-236>238-310900-
THE UPPER TEXAS COAST

CITY           SKY/WX    TMP DP  RH WIND       PRES   REMARKS
*ORANGE        CLEAR     43  37  78 NE3       30.30S
PORT ARTHUR    CLEAR     47  37  68 E10       30.27F WCI  42
GALVESTON      CLEAR     54  46  74 E12       30.26F
ANGLETON       CLEAR     50  47  89 E3        30.24F
*BAY CITY      CLOUDY    51  50  95 E6        30.23F
PALACIOS       CLOUDY    57  52  83 E12       30.22F
$$

TXZ229>234-239>247-310900-
TEXAS COASTAL BEND AND RIO GRANDE PLAINS

CITY           SKY/WX    TMP DP  RH WIND       PRES   REMARKS
VICTORIA       CLOUDY    53  49  86 NE9       30.22F
*BEEVILLE      CLOUDY    53  53  98 E8        30.19F
ROCKPORT       CLOUDY    59  55  87 E14       30.18F
*PORT ARANSAS  CLOUDY    58  56  92 NE14      30.17F
*PORT LAVACA   CLOUDY    55  52  90 E8        30.21F
*INGLESIDE     CLOUDY    58  54  85 E12G17    30.17F
CORPUS CHRISTI CLOUDY    59  55  87 E12       30.16F
CORPUS NAS     CLOUDY    59  57  93 NE13      30.16F
*ROBSTOWN      NOT AVBL
ALICE          CLOUDY    58  54  86 NE10      30.16F
KINGSVILLE NAS CLOUDY    59  57  94 NE12      30.16F
COTULLA        NOT AVBL
*FAITH RANCH   CLOUDY    55  52  88 E13G18    30.14F
LAREDO         LGT RAIN  59  56  89 E10       30.14F
$$

TXZ248>255-310900-
DEEP SOUTH TEXAS

CITY           SKY/WX    TMP DP  RH WIND       PRES   REMARKS
BROWNSVILLE    MOCLDY    62  60  93 E5        30.13F
PORT ISABEL    MOCLDY    64  61  90 SE7       30.13F
*SOUTH PADRE   MOCLDY    63  63 100 CALM      30.13F
HARLINGEN      CLOUDY    61  60  97 E6        30.13F FOG
*HEBBRONVILLE  LGT RAIN  56  55  96 NE9       30.15F
MCALLEN        CLOUDY    65  61  87 E9        30.12F
*WESLACO       CLOUDY    63  60  89 E3        30.13F
FALFURRIAS     CLOUDY    58  55  88 NE7       30.15F
EDINBURG       CLOUDY    64  61  88 E6        30.13F
*ZAPATA        CLOUDY    59  59  99 E9        30.11F FOG
$$

TXZ213>215-236>238-242>244-246-247-251-254-255-310900-
CMAN STATIONS

STATION/POSITION TIME  TEMP    WIND        PRES    WAVE
                       AIR SEA DIR/SP/G            HT/PER
                 (UTC) (F)     (DEG/KT/KT) (MB)    (FT/S)
SABINE PASS      0800   48 56   70/  7/ 10 1025.0
SEA RIM ST PARK  0800   46      60/  7/  9 1025.4
NORTH JETTY/GLS  0800   55 59  120/ 16/ 20   N/A
EAGLE POINT      0800   55 57  120/ 16/ 19 1024.4
MORGANS POINT    0800   52     100/ 14/ 17 1024.5
MISSION/ARANSAS  0700   58     VRB  9      1023.0
PORT O`CONNOR    0800           70/ 16/ 19   N/A
PORT ARANSAS     0800   58 60   30/ 16/ 18 1021.7
MALAQUITE BEACH  0800   60 63   30/ 13/ 15 1020.5
BAFFIN BAY       0800   61      40/  8/ 10 1020.7
PORT ISABEL      0800   62 62   90/  5/  6 1020.3
$$

GMZ080-GMZ150>470-310900-
OFFSHORE BUOY REPORTS

STATION/POSITION TIME  TEMP    WIND        PRES    WAVE
                       AIR SEA DIR/SP/G            HT/PER
                 (UTC) (F)     (DEG/KT/KT) (MB)    (FT/S)
20 E GALVESTON   0800   56 57   80/ 17/ 19 1023.6    3/ 5
90 E PT ARANSAS  0800   65 68   90/ 17/ 19 1022.4    4/ 6
35 NE PT MANSFLD 0800   68 69  110/ 17/ 21 1020.3    6/ 7
200 E PT ISABEL  0800   70 72  100/ 16/ 17 1021.4    5/ 7
$$



USA.gov is the U.S. government's official web portal to all federal, state and local government web resources and services.